| time (UTC) | temp F | wind direction | speed MPH | gust MPH | rain 1hr in | rain 24hr in | rain mn in | humidity % | barometer mb |
| 20260509185509 | 58 | 285 | 2.0 | 6.0 | 0.00 | 0.00 | 0.00 | 84 | 1012.0 |
| 20260509185009 | 58 | 340 | 3.0 | 10.0 | 0.00 | 0.00 | 0.00 | 83 | 1012.1 |
| 20260509184011 | 58 | 300 | 3.0 | 8.0 | 0.00 | 0.00 | 0.00 | 82 | 1011.9 |
| 20260509183010 | 58 | 344 | 2.0 | 8.0 | 0.00 | 0.00 | 0.00 | 80 | 1011.8 |
| 20260509182510 | 58 | 326 | 1.0 | 8.0 | 0.00 | 0.00 | 0.00 | 80 | 1012.0 |
| 20260509182009 | 59 | 334 | 2.0 | 10.0 | 0.00 | 0.00 | 0.00 | 80 | 1012.2 |
| 20260509181509 | 59 | 323 | 3.0 | 10.0 | 0.00 | 0.00 | 0.00 | 79 | 1012.2 |
| 20260509181011 | 59 | 314 | 3.0 | 8.0 | 0.00 | 0.00 | 0.00 | 79 | 1012.2 |
| 20260509180011 | 60 | 277 | 2.0 | 12.0 | 0.00 | 0.00 | 0.00 | 77 | 1012.2 |
| 20260509175508 | 60 | 340 | 6.0 | 12.0 | 0.00 | 0.00 | 0.00 | 76 | 1012.2 |
| 20260509175009 | 61 | 328 | 1.0 | 8.0 | 0.00 | 0.00 | 0.00 | 77 | 1012.2 |
| 20260509174508 | 62 | 303 | 3.0 | 8.0 | 0.00 | 0.00 | 0.00 | 77 | 1012.2 |
| 20260509174011 | 62 | 293 | 2.0 | 5.0 | 0.00 | 0.00 | 0.00 | 77 | 1012.2 |
| 20260509173009 | 62 | 308 | 1.0 | 7.0 | 0.00 | 0.00 | 0.00 | 76 | 1012.0 |
| 20260509171509 | 62 | 306 | 3.0 | 6.0 | 0.00 | 0.00 | 0.00 | 73 | 1011.9 |
| 20260509171011 | 62 | 329 | 3.0 | 6.0 | 0.00 | 0.00 | 0.00 | 74 | 1012.0 |
| 20260509170508 | 62 | 351 | 2.0 | 8.0 | 0.00 | 0.00 | 0.00 | 74 | 1011.9 |
| 20260509170010 | 62 | 297 | 5.0 | 8.0 | 0.00 | 0.00 | 0.00 | 73 | 1012.1 |
| 20260509165511 | 62 | 334 | 3.0 | 6.0 | 0.00 | 0.00 | 0.00 | 73 | 1012.1 |
| 20260509165009 | 62 | 289 | 2.0 | 8.0 | 0.00 | 0.00 | 0.00 | 73 | 1012.2 |
| 20260509164509 | 62 | 321 | 1.0 | 8.0 | 0.00 | 0.00 | 0.00 | 73 | 1012.1 |
| 20260509164011 | 62 | 279 | 1.0 | 8.0 | 0.00 | 0.00 | 0.00 | 74 | 1012.0 |
| 20260509163010 | 62 | 289 | 1.0 | 4.0 | 0.00 | 0.00 | 0.00 | 74 | 1012.0 |
| 20260509162510 | 62 | 324 | 1.0 | 5.0 | 0.00 | 0.00 | 0.00 | 74 | 1012.1 |
| 20260509162010 | 62 | 327 | 0.0 | 5.0 | 0.00 | 0.00 | 0.00 | 74 | 1012.1 |
| 20260509161509 | 62 | 25 | 1.0 | 11.0 | 0.00 | 0.00 | 0.00 | 73 | 1012.2 |
| 20260509161011 | 62 | 308 | 5.0 | 11.0 | 0.00 | 0.00 | 0.00 | 71 | 1012.2 |
| 20260509160508 | 63 | 321 | 3.0 | 8.0 | 0.00 | 0.00 | 0.00 | 72 | 1012.3 |
| 20260509160011 | 63 | 302 | 2.0 | 6.0 | 0.00 | 0.00 | 0.00 | 73 | 1012.4 |
| 20260509155510 | 63 | 291 | 2.0 | 6.0 | 0.00 | 0.00 | 0.00 | 72 | 1012.5 |
| 20260509155010 | 63 | 297 | 1.0 | 3.0 | 0.00 | 0.00 | 0.00 | 73 | 1012.6 |
| 20260509154510 | 63 | 297 | 1.0 | 3.0 | 0.00 | 0.00 | 0.00 | 73 | 1012.7 |
| 20260509154009 | 63 | 282 | 0.0 | 7.0 | 0.00 | 0.00 | 0.00 | 73 | 1012.8 |
| 20260509153509 | 63 | 267 | 3.0 | 7.0 | 0.00 | 0.00 | 0.00 | 72 | 1012.8 |
| 20260509152009 | 63 | 267 | 2.0 | 8.0 | 0.00 | 0.00 | 0.00 | 71 | 1013.0 |
| 20260509151510 | 63 | 173 | 1.0 | 4.0 | 0.00 | 0.00 | 0.00 | 71 | 1013.0 |
| 20260509151009 | 63 | 290 | 2.0 | 5.0 | 0.00 | 0.00 | 0.00 | 71 | 1013.1 |
| 20260509150509 | 63 | 289 | 2.0 | 5.0 | 0.00 | 0.00 | 0.00 | 70 | 1013.1 |
| 20260509150012 | 63 | 317 | 1.0 | 4.0 | 0.00 | 0.00 | 0.00 | 71 | 1013.0 |
| 20260509145509 | 63 | 297 | 1.0 | 5.0 | 0.00 | 0.00 | 0.00 | 71 | 1013.0 |
| 20260509145010 | 63 | 275 | 1.0 | 5.0 | 0.00 | 0.00 | 0.00 | 72 | 1012.9 |
| 20260509144009 | 63 | 145 | 1.0 | 7.0 | 0.00 | 0.00 | 0.00 | 71 | 1012.8 |
| 20260509143507 | 63 | 306 | 1.0 | 8.0 | 0.00 | 0.00 | 0.00 | 70 | 1012.8 |
| 20260509143010 | 63 | 242 | 3.0 | 7.0 | 0.00 | 0.00 | 0.00 | 71 | 1012.7 |
| 20260509142507 | 63 | 314 | 3.0 | 6.0 | 0.00 | 0.00 | 0.00 | 71 | 1012.8 |
| 20260509142008 | 63 | 286 | 1.0 | 4.0 | 0.00 | 0.00 | 0.00 | 72 | 1012.7 |
| 20260509141009 | 63 | 209 | 3.0 | 6.0 | 0.00 | 0.00 | 0.00 | 71 | 1012.6 |
| 20260509140011 | 62 | 227 | 1.0 | 3.0 | 0.00 | 0.00 | 0.00 | 73 | 1012.6 |
| 20260509135508 | 62 | 149 | 1.0 | 4.0 | 0.00 | 0.00 | 0.00 | 75 | 1012.6 |
| 20260509135009 | 62 | 220 | 1.0 | 7.0 | 0.00 | 0.00 | 0.00 | 74 | 1012.5 |
| 20260509134509 | 61 | 161 | 4.0 | 7.0 | 0.00 | 0.00 | 0.00 | 75 | 1012.6 |
| 20260509134008 | 61 | 177 | 2.0 | 6.0 | 0.00 | 0.00 | 0.00 | 76 | 1012.6 |
| 20260509133509 | 61 | 215 | 3.0 | 8.0 | 0.00 | 0.00 | 0.00 | 77 | 1012.6 |
| 20260509132011 | 60 | 269 | 4.0 | 8.0 | 0.00 | 0.00 | 0.00 | 80 | 1012.5 |
| 20260509131508 | 60 | 275 | 1.0 | 3.0 | 0.00 | 0.00 | 0.00 | 82 | 1012.7 |
| 20260509131009 | 60 | 38 | 1.0 | 4.0 | 0.00 | 0.00 | 0.00 | 82 | 1012.7 |
| 20260509130509 | 60 | 211 | 2.0 | 5.0 | 0.00 | 0.00 | 0.00 | 83 | 1012.8 |
| 20260509130009 | 59 | 88 | 1.0 | 5.0 | 0.00 | 0.00 | 0.00 | 84 | 1012.7 |
| 20260509125508 | 59 | 175 | 1.0 | 4.0 | 0.00 | 0.00 | 0.00 | 84 | 1012.7 |
| 20260509125010 | 59 | 160 | 1.0 | 4.0 | 0.00 | 0.00 | 0.00 | 85 | 1012.7 |
| 20260509124508 | 58 | 168 | 1.0 | 5.0 | 0.00 | 0.00 | 0.00 | 87 | 1012.8 |
| 20260509123509 | 57 | 150 | 1.0 | 4.0 | 0.00 | 0.00 | 0.00 | 88 | 1012.9 |
| 20260509123008 | 57 | 233 | 0.0 | 7.0 | 0.00 | 0.00 | 0.00 | 88 | 1012.9 |
| 20260509122508 | 57 | 168 | 4.0 | 7.0 | 0.00 | 0.00 | 0.00 | 89 | 1012.8 |
| 20260509122010 | 56 | 185 | 2.0 | 5.0 | 0.00 | 0.00 | 0.00 | 89 | 1012.8 |
| 20260509121508 | 56 | 169 | 0.0 | 0.0 | 0.00 | 0.00 | 0.00 | 90 | 1012.8 |
| 20260509121009 | 56 | 168 | 0.0 | 1.0 | 0.00 | 0.00 | 0.00 | 90 | 1012.9 |
| 20260509115508 | 55 | 167 | 0.0 | 2.0 | 0.00 | 0.00 | 0.00 | 90 | 1012.8 |
| 20260509115010 | 55 | 167 | 0.0 | 3.0 | 0.00 | 0.00 | 0.00 | 90 | 1012.7 |
| 20260509114508 | 54 | 199 | 0.0 | 3.0 | 0.00 | 0.00 | 0.00 | 89 | 1012.7 |
| 20260509114009 | 54 | 200 | 0.0 | 2.0 | 0.00 | 0.00 | 0.00 | 89 | 1012.8 |
| 20260509113509 | 54 | 163 | 0.0 | 1.0 | 0.00 | 0.00 | 0.00 | 89 | 1012.7 |
| 20260509113008 | 54 | 163 | 0.0 | 0.0 | 0.00 | 0.00 | 0.00 | 89 | 1012.7 |
| 20260509112509 | 54 | 163 | 0.0 | 0.0 | 0.00 | 0.00 | 0.00 | 89 | 1012.7 |
| 20260509112008 | 53 | 163 | 0.0 | 0.0 | 0.00 | 0.00 | 0.00 | 88 | 1012.7 |
| 20260509111507 | 53 | 163 | 0.0 | 0.0 | 0.00 | 0.00 | 0.00 | 88 | 1012.6 |
| 20260509111010 | 53 | 163 | 0.0 | 0.0 | 0.00 | 0.00 | 0.00 | 88 | 1012.7 |
| 20260509110508 | 53 | 163 | 0.0 | 0.0 | 0.00 | 0.00 | 0.00 | 88 | 1012.6 |
| 20260509110010 | 53 | 163 | 0.0 | 0.0 | 0.00 | 0.00 | 0.00 | 87 | 1012.7 |
| 20260509105507 | 53 | 163 | 0.0 | 0.0 | 0.00 | 0.00 | 0.00 | 87 | 1012.7 |
| 20260509105009 | 53 | 163 | 0.0 | 0.0 | 0.00 | 0.00 | 0.00 | 87 | 1012.5 |
| 20260509104508 | 53 | 163 | 0.0 | 0.0 | 0.00 | 0.00 | 0.00 | 87 | 1012.5 |
| 20260509104008 | 53 | 163 | 0.0 | 0.0 | 0.00 | 0.00 | 0.00 | 87 | 1012.7 |
| 20260509103507 | 53 | 163 | 0.0 | 0.0 | 0.00 | 0.00 | 0.00 | 87 | 1012.6 |
| 20260509103010 | 53 | 163 | 0.0 | 0.0 | 0.00 | 0.00 | 0.00 | 87 | 1012.6 |
| 20260509102009 | 53 | 163 | 0.0 | 0.0 | 0.00 | 0.00 | 0.00 | 86 | 1012.5 |
| 20260509101508 | 53 | 163 | 0.0 | 0.0 | 0.00 | 0.00 | 0.00 | 86 | 1012.5 |
| 20260509101008 | 53 | 163 | 0.0 | 0.0 | 0.00 | 0.00 | 0.00 | 85 | 1012.4 |
| 20260509100508 | 53 | 163 | 0.0 | 0.0 | 0.00 | 0.00 | 0.00 | 85 | 1012.4 |
| 20260509100011 | 53 | 163 | 0.0 | 0.0 | 0.00 | 0.00 | 0.00 | 85 | 1012.5 |
| 20260509095507 | 53 | 163 | 0.0 | 0.0 | 0.00 | 0.00 | 0.00 | 85 | 1012.4 |
| 20260509094509 | 53 | 163 | 0.0 | 0.0 | 0.00 | 0.00 | 0.00 | 84 | 1012.3 |
| 20260509094008 | 53 | 163 | 0.0 | 0.0 | 0.00 | 0.00 | 0.00 | 84 | 1012.5 |
| 20260509093507 | 53 | 163 | 0.0 | 0.0 | 0.00 | 0.00 | 0.00 | 84 | 1012.3 |
| 20260509093010 | 53 | 163 | 0.0 | 0.0 | 0.00 | 0.00 | 0.00 | 84 | 1012.4 |
| 20260509092507 | 53 | 163 | 0.0 | 0.0 | 0.00 | 0.00 | 0.00 | 84 | 1012.4 |
| 20260509092008 | 53 | 163 | 0.0 | 0.0 | 0.00 | 0.00 | 0.00 | 83 | 1012.4 |
| 20260509091509 | 53 | 163 | 0.0 | 0.0 | 0.00 | 0.00 | 0.00 | 83 | 1012.6 |
| 20260509091008 | 53 | 163 | 0.0 | 0.0 | 0.00 | 0.00 | 0.00 | 83 | 1012.4 |
| 20260509090508 | 53 | 163 | 0.0 | 0.0 | 0.00 | 0.00 | 0.00 | 83 | 1012.5 |
| 20260509090023 | 53 | 163 | 0.0 | 0.0 | 0.00 | 0.00 | 0.00 | 83 | 1012.6 |
| 20260509085507 | 53 | 163 | 0.0 | 0.0 | 0.00 | 0.00 | 0.00 | 82 | 1012.6 |
| 20260509085008 | 53 | 163 | 0.0 | 0.0 | 0.00 | 0.00 | 0.00 | 82 | 1012.6 |
| 20260509084509 | 53 | 163 | 0.0 | 0.0 | 0.00 | 0.00 | 0.00 | 82 | 1012.7 |
| 20260509083507 | 53 | 163 | 0.0 | 0.0 | 0.00 | 0.00 | 0.00 | 82 | 1012.8 |
| 20260509083010 | 53 | 163 | 0.0 | 0.0 | 0.00 | 0.00 | 0.00 | 81 | 1012.7 |
| 20260509082008 | 53 | 163 | 0.0 | 0.0 | 0.00 | 0.00 | 0.00 | 81 | 1012.8 |
| 20260509081508 | 53 | 163 | 0.0 | 0.0 | 0.00 | 0.00 | 0.00 | 81 | 1012.7 |
| 20260509081008 | 53 | 163 | 0.0 | 0.0 | 0.00 | 0.00 | 0.00 | 80 | 1012.7 |
| 20260509080507 | 53 | 163 | 0.0 | 0.0 | 0.00 | 0.00 | 0.00 | 80 | 1012.9 |
| 20260509080010 | 53 | 163 | 0.0 | 0.0 | 0.00 | 0.00 | 0.00 | 79 | 1012.9 |
| 20260509075507 | 53 | 163 | 0.0 | 3.0 | 0.00 | 0.00 | 0.00 | 78 | 1012.8 |
| 20260509075008 | 53 | 163 | 2.0 | 3.0 | 0.00 | 0.00 | 0.00 | 77 | 1013.0 |
| 20260509074509 | 54 | 142 | 0.0 | 0.0 | 0.00 | 0.00 | 0.00 | 76 | 1013.0 |
| 20260509074008 | 54 | 142 | 0.0 | 0.0 | 0.00 | 0.00 | 0.00 | 75 | 1012.9 |
| 20260509073507 | 54 | 142 | 0.0 | 0.0 | 0.00 | 0.00 | 0.00 | 74 | 1013.0 |
| 20260509073010 | 54 | 142 | 0.0 | 0.0 | 0.00 | 0.00 | 0.00 | 74 | 1013.1 |
| 20260509072507 | 54 | 142 | 0.0 | 0.0 | 0.00 | 0.00 | 0.00 | 74 | 1013.1 |
| 20260509071509 | 55 | 142 | 0.0 | 0.0 | 0.00 | 0.00 | 0.00 | 73 | 1013.1 |
| 20260509071008 | 55 | 142 | 0.0 | 0.0 | 0.00 | 0.00 | 0.00 | 73 | 1013.1 |
| 20260509065509 | 56 | 142 | 0.0 | 0.0 | 0.00 | 0.00 | 0.00 | 72 | 1013.2 |
| 20260509064508 | 56 | 142 | 0.0 | 2.0 | 0.00 | 0.00 | 0.00 | 72 | 1013.3 |
| 20260509064010 | 56 | 142 | 0.0 | 4.0 | 0.00 | 0.00 | 0.00 | 72 | 1013.3 |
| 20260509063508 | 57 | 166 | 0.0 | 3.0 | 0.00 | 0.00 | 0.00 | 72 | 1013.4 |
| 20260509063008 | 57 | 187 | 0.0 | 2.0 | 0.00 | 0.00 | 0.00 | 71 | 1013.5 |
| 20260509062509 | 57 | 187 | 0.0 | 0.0 | 0.00 | 0.00 | 0.00 | 71 | 1013.5 |
| 20260509062008 | 57 | 187 | 0.0 | 3.0 | 0.00 | 0.00 | 0.00 | 71 | 1013.5 |
| 20260509061009 | 57 | 184 | 2.0 | 7.0 | 0.00 | 0.00 | 0.00 | 71 | 1013.7 |
| 20260509060507 | 57 | 255 | 2.0 | 7.0 | 0.00 | 0.00 | 0.00 | 70 | 1013.7 |
| 20260509060009 | 57 | 256 | 2.0 | 7.0 | 0.00 | 0.00 | 0.00 | 69 | 1013.6 |
| 20260509055508 | 57 | 99 | 1.0 | 3.0 | 0.00 | 0.00 | 0.00 | 68 | 1013.6 |
| 20260509055009 | 57 | 73 | 1.0 | 3.0 | 0.00 | 0.00 | 0.00 | 67 | 1013.7 |
| 20260509054008 | 57 | 244 | 0.0 | 1.0 | 0.00 | 0.00 | 0.00 | 67 | 1013.7 |
| 20260509053508 | 57 | 244 | 0.0 | 1.0 | 0.00 | 0.00 | 0.00 | 66 | 1013.8 |
| 20260509052508 | 57 | 244 | 1.0 | 2.0 | 0.00 | 0.00 | 0.00 | 66 | 1013.9 |
| 20260509052009 | 57 | 244 | 0.0 | 0.0 | 0.00 | 0.00 | 0.00 | 66 | 1013.9 |
| 20260509051509 | 57 | 244 | 0.0 | 1.0 | 0.00 | 0.00 | 0.00 | 66 | 1013.9 |
| 20260509051009 | 57 | 244 | 0.0 | 4.0 | 0.00 | 0.00 | 0.00 | 66 | 1014.0 |
| 20260509050507 | 57 | 244 | 1.0 | 4.0 | 0.00 | 0.00 | 0.00 | 66 | 1014.1 |
| 20260509050014 | 57 | 146 | 0.0 | 0.0 | 0.00 | 0.00 | 0.00 | 65 | 1014.1 |
| 20260509045509 | 57 | 146 | 0.0 | 0.0 | 0.00 | 0.00 | 0.00 | 65 | 1014.1 |
| 20260509045010 | 57 | 146 | 0.0 | 0.0 | 0.00 | 0.00 | 0.00 | 64 | 1014.0 |
| 20260509044511 | 57 | 146 | 0.0 | 0.0 | 0.00 | 0.00 | 0.00 | 64 | 1014.1 |
| 20260509044010 | 57 | 146 | 0.0 | 0.0 | 0.00 | 0.00 | 0.00 | 64 | 1014.1 |
| 20260509043509 | 57 | 146 | 0.0 | 0.0 | 0.00 | 0.00 | 0.00 | 64 | 1014.0 |
| 20260509042510 | 58 | 146 | 0.0 | 2.0 | 0.00 | 0.00 | 0.00 | 64 | 1014.1 |
| 20260509042010 | 58 | 146 | 0.0 | 2.0 | 0.00 | 0.00 | 0.00 | 65 | 1014.0 |
| 20260509041511 | 58 | 216 | 0.0 | 2.0 | 0.00 | 0.00 | 0.00 | 64 | 1014.0 |
| 20260509041010 | 58 | 207 | 0.0 | 0.0 | 0.00 | 0.00 | 0.00 | 64 | 1013.9 |
| 20260509040509 | 58 | 207 | 0.0 | 0.0 | 0.00 | 0.00 | 0.00 | 64 | 1014.0 |
| 20260509035011 | 59 | 207 | 0.0 | 0.0 | 0.00 | 0.00 | 0.00 | 63 | 1014.1 |
| 20260509034509 | 59 | 207 | 0.0 | 0.0 | 0.00 | 0.00 | 0.00 | 63 | 1014.0 |
| 20260509034009 | 59 | 207 | 0.0 | 0.0 | 0.00 | 0.00 | 0.00 | 62 | 1014.1 |
| 20260509033510 | 60 | 207 | 0.0 | 0.0 | 0.00 | 0.00 | 0.00 | 61 | 1014.1 |
| 20260509033009 | 60 | 207 | 0.0 | 0.0 | 0.00 | 0.00 | 0.00 | 61 | 1014.2 |
| 20260509032011 | 60 | 207 | 0.0 | 1.0 | 0.00 | 0.00 | 0.00 | 61 | 1014.2 |
| 20260509031508 | 60 | 207 | 0.0 | 0.0 | 0.00 | 0.00 | 0.00 | 60 | 1014.2 |
| 20260509031009 | 60 | 207 | 0.0 | 0.0 | 0.00 | 0.00 | 0.00 | 60 | 1014.1 |
| 20260509030510 | 60 | 207 | 0.0 | 0.0 | 0.00 | 0.00 | 0.00 | 60 | 1014.2 |
| 20260509030010 | 60 | 207 | 0.0 | 0.0 | 0.00 | 0.00 | 0.00 | 60 | 1014.0 |
| 20260509025508 | 60 | 207 | 0.0 | 0.0 | 0.00 | 0.00 | 0.00 | 60 | 1014.1 |
| 20260509025011 | 61 | 207 | 0.0 | 0.0 | 0.00 | 0.00 | 0.00 | 60 | 1013.9 |
| 20260509023510 | 61 | 207 | 0.0 | 3.0 | 0.00 | 0.00 | 0.00 | 59 | 1013.9 |
| 20260509023009 | 61 | 207 | 1.0 | 3.0 | 0.00 | 0.00 | 0.00 | 58 | 1014.0 |
| 20260509022509 | 61 | 290 | 0.0 | 0.0 | 0.00 | 0.00 | 0.00 | 59 | 1014.0 |
| 20260509022011 | 61 | 290 | 0.0 | 0.0 | 0.00 | 0.00 | 0.00 | 59 | 1014.1 |
| 20260509021508 | 61 | 290 | 0.0 | 0.0 | 0.00 | 0.00 | 0.00 | 58 | 1014.0 |
| 20260509021010 | 61 | 290 | 0.0 | 1.0 | 0.00 | 0.00 | 0.00 | 58 | 1014.1 |
| 20260509020510 | 61 | 290 | 0.0 | 2.0 | 0.00 | 0.00 | 0.00 | 58 | 1014.0 |
| 20260509020010 | 61 | 290 | 1.0 | 2.0 | 0.00 | 0.00 | 0.00 | 57 | 1014.0 |
| 20260509015509 | 61 | 290 | 0.0 | 0.0 | 0.00 | 0.00 | 0.00 | 57 | 1014.0 |
| 20260509014509 | 62 | 290 | 0.0 | 1.0 | 0.00 | 0.00 | 0.00 | 57 | 1013.9 |
| 20260509013509 | 62 | 290 | 0.0 | 0.0 | 0.00 | 0.00 | 0.00 | 56 | 1013.8 |
| 20260509013011 | 62 | 290 | 0.0 | 0.0 | 0.00 | 0.00 | 0.00 | 55 | 1013.8 |
| 20260509012509 | 62 | 290 | 0.0 | 3.0 | 0.00 | 0.00 | 0.00 | 55 | 1013.8 |
| 20260509011510 | 62 | 256 | 0.0 | 0.0 | 0.00 | 0.00 | 0.00 | 55 | 1013.7 |
| 20260509011010 | 62 | 256 | 0.0 | 0.0 | 0.00 | 0.00 | 0.00 | 54 | 1013.6 |
| 20260509010511 | 62 | 256 | 0.0 | 0.0 | 0.00 | 0.00 | 0.00 | 54 | 1013.5 |
| 20260509010012 | 62 | 256 | 0.0 | 0.0 | 0.00 | 0.00 | 0.00 | 53 | 1013.5 |
| 20260509005510 | 62 | 256 | 0.0 | 0.0 | 0.00 | 0.00 | 0.00 | 53 | 1013.3 |
| 20260509005012 | 62 | 256 | 0.0 | 0.0 | 0.00 | 0.00 | 0.00 | 53 | 1013.2 |
| 20260509004509 | 62 | 256 | 0.0 | 0.0 | 0.00 | 0.00 | 0.00 | 53 | 1013.1 |
| 20260509003009 | 63 | 256 | 0.0 | 2.0 | 0.00 | 0.00 | 0.00 | 52 | 1013.0 |
| 20260509002508 | 63 | 256 | 0.0 | 1.0 | 0.00 | 0.00 | 0.00 | 52 | 1012.8 |
| 20260509002011 | 63 | 256 | 0.0 | 0.0 | 0.00 | 0.00 | 0.00 | 52 | 1012.8 |
| 20260509001509 | 63 | 256 | 0.0 | 1.0 | 0.00 | 0.00 | 0.00 | 51 | 1012.7 |
| 20260509001010 | 63 | 256 | 0.0 | 0.0 | 0.00 | 0.00 | 0.00 | 51 | 1012.7 |
| 20260509000510 | 63 | 256 | 0.0 | 0.0 | 0.00 | 0.00 | 0.00 | 51 | 1012.7 |
| 20260509000010 | 63 | 256 | 0.0 | 1.0 | 0.00 | 0.00 | 0.00 | 50 | 1012.6 |
| 20260508235010 | 63 | 256 | 0.0 | 2.0 | 0.00 | 0.00 | 0.00 | 50 | 1012.6 |
| 20260508234009 | 64 | 256 | 0.0 | 3.0 | 0.00 | 0.00 | 0.00 | 48 | 1012.5 |
| 20260508233510 | 64 | 256 | 2.0 | 4.0 | 0.00 | 0.00 | 0.00 | 48 | 1012.5 |
| 20260508233010 | 64 | 290 | 1.0 | 4.0 | 0.00 | 0.00 | 0.00 | 47 | 1012.4 |
| 20260508232508 | 64 | 346 | 1.0 | 2.0 | 0.00 | 0.00 | 0.00 | 47 | 1012.3 |
| 20260508232011 | 64 | 327 | 0.0 | 6.0 | 0.00 | 0.00 | 0.00 | 46 | 1012.2 |
| 20260508231508 | 64 | 257 | 0.0 | 5.0 | 0.00 | 0.00 | 0.00 | 45 | 1012.2 |
| 20260508231010 | 64 | 244 | 0.0 | 2.0 | 0.00 | 0.00 | 0.00 | 45 | 1012.2 |
| 20260508230510 | 65 | 244 | 0.0 | 2.0 | 0.00 | 0.00 | 0.00 | 44 | 1012.1 |
| 20260508230010 | 65 | 244 | 1.0 | 2.0 | 0.00 | 0.00 | 0.00 | 44 | 1012.0 |
| 20260508225508 | 65 | 254 | 0.0 | 5.0 | 0.00 | 0.00 | 0.00 | 44 | 1011.9 |
| 20260508225010 | 65 | 279 | 0.0 | 2.0 | 0.00 | 0.00 | 0.00 | 44 | 1011.9 |
| 20260508224509 | 65 | 279 | 0.0 | 2.0 | 0.00 | 0.00 | 0.00 | 43 | 1012.0 |
| 20260508224010 | 65 | 280 | 0.0 | 2.0 | 0.00 | 0.00 | 0.00 | 43 | 1011.9 |
| 20260508223508 | 65 | 192 | 1.0 | 3.0 | 0.00 | 0.00 | 0.00 | 43 | 1011.9 |
| 20260508223014 | 65 | 279 | 0.0 | 3.0 | 0.00 | 0.00 | 0.00 | 43 | 1011.9 |
| 20260508222510 | 65 | 296 | 0.0 | 3.0 | 0.00 | 0.00 | 0.00 | 42 | 1011.9 |
| 20260508222010 | 65 | 296 | 1.0 | 5.0 | 0.00 | 0.00 | 0.00 | 41 | 1011.9 |
| 20260508221511 | 66 | 281 | 0.0 | 5.0 | 0.00 | 0.00 | 0.00 | 42 | 1012.0 |
| 20260508221010 | 66 | 321 | 0.0 | 6.0 | 0.00 | 0.00 | 0.00 | 43 | 1011.9 |
| 20260508220509 | 66 | 36 | 0.0 | 6.0 | 0.00 | 0.00 | 0.00 | 42 | 1011.9 |
| 20260508220029 | 66 | 194 | 0.0 | 5.0 | 0.00 | 0.00 | 0.00 | 43 | 1012.0 |
| 20260508215010 | 66 | 10 | 0.0 | 4.0 | 0.00 | 0.00 | 0.00 | 41 | 1011.9 |
| 20260508214509 | 66 | 153 | 1.0 | 3.0 | 0.00 | 0.00 | 0.00 | 41 | 1011.9 |
| 20260508213509 | 66 | 17 | 1.0 | 9.0 | 0.00 | 0.00 | 0.00 | 41 | 1011.9 |
| 20260508213010 | 67 | 298 | 1.0 | 10.0 | 0.00 | 0.00 | 0.00 | 41 | 1011.8 |
| 20260508212009 | 68 | 297 | 3.0 | 9.0 | 0.00 | 0.00 | 0.00 | 38 | 1011.8 |
| 20260508211508 | 69 | 331 | 4.0 | 9.0 | 0.00 | 0.00 | 0.00 | 38 | 1011.8 |
| 20260508211011 | 69 | 65 | 2.0 | 13.0 | 0.00 | 0.00 | 0.00 | 39 | 1011.8 |
| 20260508210508 | 69 | 298 | 3.0 | 13.0 | 0.00 | 0.00 | 0.00 | 39 | 1011.9 |
| 20260508210010 | 69 | 40 | 6.0 | 11.0 | 0.00 | 0.00 | 0.00 | 38 | 1011.9 |
| 20260508205510 | 68 | 331 | 1.0 | 13.0 | 0.00 | 0.00 | 0.00 | 45 | 1011.9 |
| 20260508205009 | 68 | 329 | 6.0 | 13.0 | 0.00 | 0.00 | 0.00 | 40 | 1011.8 |
| 20260508204010 | 67 | 332 | 2.0 | 11.0 | 0.00 | 0.00 | 0.00 | 42 | 1012.1 |
| 20260508203508 | 66 | 338 | 4.0 | 11.0 | 0.00 | 0.00 | 0.00 | 40 | 1012.2 |
| 20260508202510 | 66 | 328 | 4.0 | 11.0 | 0.00 | 0.00 | 0.00 | 42 | 1012.2 |
| 20260508201511 | 66 | 271 | 5.0 | 9.0 | 0.00 | 0.00 | 0.00 | 41 | 1012.3 |
| 20260508201011 | 66 | 328 | 6.0 | 13.0 | 0.00 | 0.00 | 0.00 | 40 | 1012.3 |
| 20260508200509 | 67 | 284 | 3.0 | 13.0 | 0.00 | 0.00 | 0.00 | 41 | 1012.3 |
| 20260508200027 | 67 | 283 | 4.0 | 11.0 | 0.00 | 0.00 | 0.00 | 41 | 1012.3 |
| 20260508195509 | 68 | 270 | 3.0 | 11.0 | 0.00 | 0.00 | 0.00 | 42 | 1012.4 |
| 20260508194511 | 67 | 263 | 3.0 | 10.0 | 0.00 | 0.00 | 0.00 | 42 | 1012.6 |
| 20260508194010 | 66 | 176 | 3.0 | 10.0 | 0.00 | 0.00 | 0.00 | 44 | 1012.7 |
| 20260508193510 | 65 | 274 | 3.0 | 11.0 | 0.00 | 0.00 | 0.00 | 46 | 1012.7 |
| 20260508193012 | 65 | 360 | 3.0 | 11.0 | 0.00 | 0.00 | 0.00 | 44 | 1012.7 |
| 20260508192510 | 65 | 300 | 4.0 | 10.0 | 0.00 | 0.00 | 0.00 | 42 | 1012.7 |
| 20260508192010 | 65 | 215 | 4.0 | 17.0 | 0.00 | 0.00 | 0.00 | 42 | 1012.7 |
| 20260508191510 | 65 | 327 | 5.0 | 17.0 | 0.00 | 0.00 | 0.00 | 43 | 1012.7 |
| 20260508191010 | 65 | 227 | 1.0 | 8.0 | 0.00 | 0.00 | 0.00 | 43 | 1012.7 |
| 20260508190508 | 66 | 15 | 3.0 | 12.0 | 0.00 | 0.00 | 0.00 | 40 | 1012.6 |
| 20260508190012 | 68 | 315 | 6.0 | 14.0 | 0.00 | 0.00 | 0.00 | 40 | 1012.7 |